Terminal Aerodrome Forecast
Issued by NWS Charleston, WV

Home | Current Version | Previous Version | Text Only | Print | Product List | Glossary On
Versions: 1 2 3 4 5 6 7 8 9 10 11 12 13 14 15 16 17 18 19
000
FTUS41 KRLX 240244 AAA
TAFBKW
TAF AMD
KBKW 240244Z 2403/2424 13014G27KT P6SM OVC045
     FM241000 12012G25KT P6SM OVC030
     FM241600 12016G28KT P6SM BKN020
     FM241800 12014G24KT P6SM -SHRA OVC020
     FM242200 12011G19KT P6SM BKN020
     FM242300 12011G18KT P6SM BKN015=

USA.gov is the U.S. government's official web portal to all federal, state and local government web resources and services.